Temp
56 58 57 55 56 58 58 63 62 69 70 77 82 81 80 82 83 82 85 89 90 94 95 94 93 92 91 93 94 95 93 91 89 88 88 88 88 88 88 88 88 88 88 88
49 56 57 54 58 59 60 61 63 65 66 81 82 82 80 79 80 80 82 84 86 89 92 94 93 91 91 91 93 94 91 91 90 88 87 87 87 88 87 87 87 87 87 88
44 55 53 49 58 60 62 64 64 59 69 79 73 78 77 74 76 77 79 81 83 84 87 91 95 93 91 91 93 91 90 89 89 87 86 86 87 87 86 86 87 86 86 87
45 50 39 59 63 62 63 66 69 69 72 71 70 75 76 75 73 74 76 77 79 83 86 90 95 99 94 94 90 90 88 88 88 87 86 86 86 86 85 87 86 86 86 87
42 45 53 56 48 48 45 59 64 64 68 68 68 72 72 74 75 73 73 75 78 82 85 87 90 95 95 92 91 89 88 87 88 88 86 86 85 85 86 86 86 86 87 86
43 38 37 42 45 49 48 41 56 60 61 61 64 63 72 72 73 71 72 74 77 81 85 90 90 95 95 90 90 87 87 88 88 88 87 86 86 85 86 86 86 90 88 88
38 37 48 50 52 49 36 41 52 54 55 59 56 65 69 72 71 67 68 68 74 80 82 88 95 93 93 90 89 89 90 89 88 88 86 87 86 86 86 86 88 86 88 88
36 34 35 52 52 39 43 47 50 52 54 55 57 62 69 69 67 66 65 66 71 73 75 84 93 92 90 87 89 88 90 89 88 87 88 89 86 85 85 85 84 85 84 87
41 44 52 50 48 52 50 46 49 49 52 54 56 59 65 66 63 62 65 63 67 71 74 77 84 91 86 86 88 88 88 87 86 86 87 90 85 84 86 84 88 86 88 89
40 49 49 46 52 52 51 50 50 53 52 55 56 57 60 62 61 61 62 62 64 66 72 71 74 78 79 84 87 86 85 85 86 85 84 87 90 89 89 90 88 90 91 91
38 46 42 46 48 49 50 52 51 53 53 54 56 56 58 59 59 59 61 62 63 63 64 67 71 73 77 79 85 85 85 86 86 88 85 87 89 91 91 92 90 93 94 95
34 40 40 42 47 49 48 49 51 50 52 55 55 55 57 57 59 60 60 63 61 62 62 64 68 70 73 76 79 83 84 86 88 91 89 90 90 89 57 57 54 54 54 73
38 43 44 45 47 49 46 48 50 50 52 52 55 56 56 56 58 59 63 64 63 63 63 64 64 65 68 72 75 78 79 81 85 85 89 88 89 90 89 72 52 52 53 52
45 44 42 45 43 47 47 48 50 52 54 54 55 57 55 55 58 60 61 66 68 66 63 63 64 62 64 69 71 73 76 57 86 86 84 83 79 81 82 73 77 85 59 59
48 49 44 45 46 45 47 47 48 49 51 52 55 55 54 54 55 58 62 66 68 65 64 65 64 62 64 66 70 71 72 78 81 83 87 81 77 70 80 82 80 86 91 61
52 53 50 44 43 44 44 45 45 46 48 49 51 54 56 55 56 56 58 59 58 59 61 59 61 62 65 66 69 73 74 64 64 76 71 81 82 83 85 88 88 88 93 94
50 48 49 46 43 43 42 44 44 45 46 47 47 49 51 53 52 52 52 54 55 54 57 57 57 61 64 67 69 73 76 79 69 83 87 88 85 88 91 92 92 91 90 87
55 55 55 53 49 43 43 43 44 45 45 47 48 48 47 47 47 48 50 51 51 51 52 54 56 58 62 66 66 70 74 77 80 83 85 86 87 88 88 91 93 92 92 86
58 56 55 55 55 52 46 45 45 45 45 46 46 45 46 46 46 48 48 49 48 48 49 53 55 58 60 60 60 67 71 73 75 77 79 75 81 86 88 89 91 92 93 91
58 58 57 56 56 55 52 50 48 46 46 46 45 45 44 45 46 46 47 46 47 49 52 53 57 58 58 59 58 64 63 63 65 72 74 78 82 85 87 75 86 89 90 90
58 58 57 57 56 56 55 54 52 48 47 47 45 44 43 45 46 46 46 45 48 51 52 52 54 55 55 56 57 55 54 54 55 58 60 71 79 82 84 83 80 74 75 75
61 59 58 58 58 57 57 57 56 53 52 51 50 48 45 44 45 46 46 45 48 50 50 52 51 51 50 50 50 50 49 48 47 47 47 48 50 53 54 56 59 55 55 54
61 60 60 58 57 58 59 59 58 57 54 53 52 52 52 49 46 43 42 47 50 49 49 50 50 49 49 49 47 46 46 45 45 44 43 43 43 43 43 43 44 45 45 45
60 59 59 60 61 59 56 57 59 59 57 58 57 55 54 53 52 51 49 49 49 50 49 49 49 49 49 47 45 45 44 44 43 43 43 42 42 41 41 41 41 41 41 41
59 60 60 59 59 60 59 60 59 59 59 59 59 58 57 58 56 54 54 55 51 52 52 50 49 49 51 49 47 46 45 43 43 43 42 41 41 41 40 40 40 40 40 40
59 60 61 59 61 62 61 62 56 60 60 59 59 60 59 58 57 57 57 56 59 54 54 54 54 54 54 52 49 46 45 45 43 43 43 42 41 41 40 40 40 39 39 39
61 48 61 58 60 60 62 60 56 57 58 59 58 59 61 59 58 55 54 56 57 58 57 56 56 55 53 53 54 53 50 46 42 44 43 42 42 41 41 40 40 40 40 40
MSLP
1009.42 1008.80 1008.50 1007.79 1006.93 1005.90 1004.59 1003.10 1000.77 999.68 998.60 997.95 997.76 998.48 999.79 1000.01 1000.13 1000.14 999.73 999.24 999.33 999.12 999.13 999.79 1000.59 1001.33 1002.33 1003.13 1003.86 1004.56 1005.59 1006.52 1007.37 1008.33 1009.31 1010.13 1010.79 1011.46 1012.17 1012.75 1013.26 1013.73 1014.12 1014.40
1010.45 1009.37 1008.54 1007.64 1006.86 1006.21 1005.41 1004.60 1003.41 1002.09 1000.42 999.38 999.53 1000.01 1000.42 1000.75 1000.68 1000.45 1000.15 1000.23 1000.13 999.82 999.47 999.28 999.74 1000.59 1001.41 1002.23 1002.81 1003.73 1004.40 1005.35 1006.40 1007.54 1008.30 1009.02 1009.89 1010.61 1011.34 1011.89 1012.41 1012.92 1013.26 1013.53
1010.34 1009.27 1008.86 1007.51 1006.11 1005.87 1005.46 1005.03 1004.25 1002.94 1002.13 1001.04 1001.75 1001.21 1001.37 1001.89 1001.80 1001.68 1001.53 1001.17 1000.78 1000.35 999.94 999.39 999.04 999.73 1000.39 1001.26 1002.41 1002.89 1003.54 1004.59 1005.53 1006.51 1007.35 1008.02 1008.85 1009.72 1010.31 1010.93 1011.53 1012.01 1012.35 1012.67
1011.27 1010.13 1008.37 1006.46 1007.24 1007.12 1005.65 1005.05 1004.76 1004.17 1003.28 1003.42 1003.71 1003.13 1002.92 1003.13 1002.99 1002.71 1002.39 1002.04 1001.41 1000.69 1000.04 999.61 998.99 998.53 999.79 1000.67 1001.61 1002.41 1003.25 1004.04 1004.75 1005.55 1006.43 1007.33 1008.09 1008.71 1009.36 1010.03 1010.43 1010.92 1011.39 1011.71
1011.81 1009.93 1008.35 1007.74 1010.17 1010.30 1009.61 1006.47 1006.74 1006.60 1005.60 1005.53 1005.46 1004.64 1003.75 1003.89 1003.69 1003.37 1003.16 1002.72 1001.99 1001.28 1000.40 999.62 998.72 998.20 998.55 999.73 1000.57 1001.62 1002.30 1003.01 1003.83 1004.66 1005.59 1006.51 1007.18 1007.80 1008.44 1009.11 1009.50 1009.86 1010.31 1010.74
1012.87 1011.49 1010.01 1011.10 1012.32 1012.43 1012.21 1010.67 1009.83 1009.09 1008.10 1007.67 1006.74 1004.79 1003.83 1004.72 1004.50 1004.44 1004.01 1003.29 1001.96 1000.51 999.34 997.97 997.59 997.57 997.65 998.73 999.60 1000.29 1001.05 1001.84 1003.00 1003.91 1004.59 1005.35 1006.18 1006.91 1007.61 1008.26 1008.52 1008.91 1009.21 1009.67
1014.47 1013.10 1011.39 1012.00 1012.69 1013.45 1013.57 1012.98 1012.22 1011.33 1010.42 1009.37 1008.28 1006.93 1006.10 1005.73 1005.53 1005.50 1004.73 1003.71 1002.14 1000.51 999.11 997.18 995.98 996.61 996.71 998.00 998.45 999.47 1001.07 1001.88 1002.67 1003.43 1004.12 1004.67 1005.46 1006.12 1006.70 1007.25 1007.54 1008.11 1008.33 1008.69
1015.35 1014.02 1012.61 1013.21 1013.07 1013.97 1014.08 1013.88 1013.23 1012.39 1011.61 1010.66 1009.64 1008.38 1006.94 1006.52 1006.47 1005.97 1005.26 1004.23 1002.85 1001.22 999.95 998.19 996.27 996.42 996.89 997.90 999.01 1000.02 1000.61 1001.23 1001.95 1002.76 1003.55 1004.18 1004.98 1005.57 1006.13 1006.63 1007.08 1007.35 1007.79 1007.87
1015.21 1013.57 1013.60 1014.17 1014.31 1014.29 1014.47 1014.28 1013.75 1013.10 1012.34 1011.52 1010.41 1009.37 1008.27 1007.40 1006.99 1006.55 1005.87 1005.17 1004.11 1002.44 1001.05 999.76 998.18 997.20 997.99 998.52 999.25 999.76 1000.22 1000.77 1001.51 1002.37 1003.09 1003.33 1004.24 1004.94 1005.48 1005.91 1005.96 1006.39 1006.41 1006.64
1016.32 1014.21 1014.53 1014.72 1013.96 1014.26 1014.39 1014.01 1013.77 1013.11 1012.34 1011.55 1010.71 1010.00 1009.11 1008.40 1007.87 1007.23 1006.51 1005.73 1004.99 1004.06 1002.80 1001.69 1000.81 1000.03 999.68 999.38 999.48 999.75 1000.10 1000.54 1001.11 1001.86 1002.54 1003.02 1003.51 1004.08 1004.39 1004.43 1004.84 1004.93 1005.03 1005.07
1016.72 1015.57 1015.51 1014.77 1014.61 1014.53 1014.18 1013.83 1013.45 1012.98 1012.23 1011.59 1010.92 1010.24 1009.61 1008.89 1008.27 1007.82 1007.05 1006.25 1005.70 1004.91 1004.53 1003.61 1002.74 1001.99 1001.27 1000.54 999.85 999.63 999.92 1000.00 1000.42 1001.00 1001.96 1002.33 1002.65 1003.04 1003.54 1003.41 1003.52 1004.04 1004.15 1004.23
1017.39 1016.87 1016.37 1015.57 1015.17 1014.76 1014.16 1013.43 1012.95 1012.47 1011.80 1011.51 1011.11 1010.39 1009.93 1009.28 1008.59 1008.03 1007.34 1006.59 1006.13 1005.74 1005.47 1004.83 1003.97 1003.51 1002.84 1001.93 1000.70 999.91 999.95 1000.02 1000.02 1000.11 1001.15 1001.62 1002.15 1003.12 1004.14 1004.89 1005.24 1005.13 1004.75 1004.49
1017.71 1016.85 1016.32 1015.86 1015.43 1014.86 1014.20 1013.31 1012.58 1012.00 1011.60 1011.37 1010.97 1010.38 1010.06 1009.47 1008.91 1008.41 1007.47 1006.86 1006.35 1006.14 1006.26 1005.77 1005.14 1004.98 1004.32 1003.37 1002.33 1001.56 1000.29 1001.01 1000.36 1000.13 1000.54 1001.19 1001.71 1002.48 1003.39 1004.73 1004.94 1005.30 1005.64 1005.94
1017.53 1016.86 1016.29 1015.86 1015.43 1014.90 1014.13 1013.38 1012.47 1011.48 1011.34 1011.19 1010.80 1010.27 1010.04 1009.67 1009.24 1008.58 1007.89 1007.03 1006.63 1006.65 1006.87 1006.63 1006.05 1005.77 1005.10 1004.00 1003.87 1002.72 1002.50 1002.70 1001.25 1000.80 1001.07 1001.38 1001.76 1002.17 1002.91 1004.73 1003.67 1004.06 1005.21 1005.35
1017.05 1016.84 1016.63 1016.15 1015.58 1015.09 1014.39 1013.43 1012.49 1011.72 1011.20 1011.04 1010.57 1010.21 1010.24 1009.81 1009.55 1008.99 1008.37 1007.83 1007.19 1007.41 1007.45 1007.17 1007.13 1006.25 1005.72 1004.73 1004.27 1003.48 1003.63 1002.69 1002.05 1001.74 1001.02 1000.97 1000.33 998.91 1001.51 1003.19 1004.25 1003.61 1003.91 1005.05
1016.25 1016.03 1015.95 1015.91 1015.55 1015.17 1014.55 1013.99 1013.24 1012.33 1011.72 1011.48 1010.94 1010.37 1010.14 1009.81 1009.88 1009.63 1009.33 1009.10 1008.83 1008.54 1008.37 1008.20 1007.45 1007.01 1006.16 1005.15 1004.72 1003.73 1003.46 1003.36 1002.74 1002.79 1002.17 1001.73 1001.40 1000.88 1001.86 1002.95 1003.38 1003.85 1002.63 1002.40
1015.83 1015.39 1015.47 1015.70 1015.65 1015.36 1015.03 1014.46 1013.63 1012.56 1011.91 1011.85 1011.40 1010.74 1010.65 1010.70 1010.50 1010.29 1010.28 1010.11 1009.61 1009.46 1009.15 1009.07 1008.07 1007.19 1005.90 1006.21 1005.87 1004.39 1003.69 1002.52 1003.54 1002.63 1001.57 1001.61 1002.07 1001.00 1000.53 1001.57 1001.97 1002.23 1002.56 1002.48
1015.68 1015.59 1015.48 1015.27 1015.17 1015.53 1015.23 1014.74 1014.08 1013.29 1012.76 1012.61 1012.36 1011.96 1011.78 1011.74 1011.62 1011.27 1011.12 1010.95 1010.35 1010.06 1009.70 1009.29 1008.87 1008.17 1007.56 1006.92 1006.29 1005.44 1004.29 1003.60 1002.48 1001.60 1001.42 1001.21 1000.89 1000.84 1001.24 1001.22 1000.84 1000.97 1001.37 1001.74
1015.36 1015.47 1015.75 1015.53 1015.39 1015.28 1015.55 1015.09 1014.71 1014.52 1014.09 1013.67 1013.34 1013.16 1012.99 1012.69 1012.55 1012.62 1012.23 1010.89 1010.68 1010.69 1010.35 1009.78 1009.46 1008.84 1008.08 1007.63 1007.24 1006.13 1005.42 1004.79 1004.08 1003.71 1003.19 1002.67 1002.28 1001.70 1001.24 1001.06 1000.73 1000.43 1000.43 1000.81
1014.91 1014.96 1015.03 1015.28 1015.37 1015.00 1014.85 1015.05 1014.92 1014.75 1014.73 1014.62 1014.24 1013.77 1013.39 1012.81 1012.83 1013.49 1012.30 1011.99 1011.98 1011.73 1011.12 1010.47 1009.65 1009.03 1008.51 1008.00 1007.63 1006.83 1006.66 1006.13 1005.65 1004.92 1004.21 1003.52 1002.53 1001.62 1001.11 1001.01 1001.02 1000.77 1000.83 1001.18
1014.64 1014.59 1014.61 1014.45 1014.31 1014.28 1014.47 1014.60 1014.85 1015.17 1015.40 1015.23 1014.85 1014.56 1014.43 1014.36 1014.60 1013.41 1012.87 1012.63 1012.71 1012.26 1011.34 1010.87 1010.53 1009.72 1009.03 1008.36 1008.01 1008.13 1008.02 1007.73 1007.44 1006.88 1006.19 1004.59 1003.00 1002.00 1001.57 1001.58 1002.19 1002.98 1003.01 1003.25
1014.63 1014.67 1014.68 1014.55 1014.49 1014.47 1014.62 1014.72 1014.79 1014.79 1014.67 1014.60 1014.61 1014.71 1014.29 1014.21 1014.17 1014.07 1014.38 1014.03 1013.52 1012.80 1011.78 1011.37 1011.42 1010.79 1010.28 1009.95 1009.65 1009.33 1009.17 1008.73 1008.42 1007.98 1007.50 1007.02 1006.59 1006.08 1005.63 1005.42 1005.31 1005.59 1005.87 1005.83
1014.96 1014.87 1014.79 1014.87 1014.75 1014.47 1014.61 1014.64 1014.65 1014.73 1014.72 1014.61 1014.63 1014.54 1014.34 1014.69 1015.02 1014.71 1014.44 1014.33 1013.97 1013.47 1012.76 1012.77 1012.61 1011.97 1011.53 1011.24 1010.75 1010.25 1010.26 1009.99 1009.67 1009.51 1009.25 1008.85 1008.68 1008.51 1008.27 1008.22 1008.14 1008.06 1008.23 1008.09
1015.17 1015.19 1015.03 1014.81 1014.62 1014.65 1014.53 1014.40 1014.34 1014.47 1014.49 1014.61 1014.77 1014.76 1014.57 1014.33 1014.78 1015.00 1015.28 1014.97 1014.73 1014.46 1014.24 1013.88 1013.43 1012.97 1012.50 1012.13 1011.68 1011.16 1011.21 1011.16 1011.26 1011.23 1011.13 1011.00 1010.72 1010.55 1010.38 1010.19 1010.20 1010.31 1010.24 1010.09
1015.42 1015.10 1015.08 1014.91 1014.51 1014.16 1014.14 1014.31 1014.23 1014.20 1014.10 1014.21 1014.40 1014.70 1014.95 1015.15 1015.12 1015.23 1014.91 1014.85 1014.92 1014.80 1014.60 1014.60 1014.44 1013.89 1013.29 1013.43 1013.09 1012.54 1012.30 1012.53 1012.80 1012.55 1012.48 1012.24 1012.23 1012.12 1012.09 1012.13 1011.78 1011.57 1011.60 1011.54
1015.50 1015.19 1015.01 1015.42 1015.14 1014.73 1014.48 1014.35 1014.55 1014.29 1014.47 1014.39 1014.48 1014.53 1014.80 1014.93 1015.22 1015.05 1014.99 1015.07 1014.99 1015.20 1015.15 1014.96 1014.80 1014.32 1014.15 1014.27 1014.20 1013.87 1013.75 1013.73 1013.81 1013.65 1013.42 1013.23 1013.52 1013.59 1013.52 1013.39 1013.04 1012.83 1012.81 1012.68
1015.41 1016.03 1015.13 1015.50 1015.46 1015.41 1015.27 1015.37 1015.57 1015.35 1015.21 1015.01 1014.85 1014.97 1014.81 1014.85 1015.03 1015.29 1015.28 1015.29 1015.03 1015.10 1015.27 1015.15 1015.14 1014.93 1014.81 1014.66 1014.55 1014.42 1014.54 1014.72 1014.67 1014.24 1013.94 1014.21 1014.55 1014.81 1014.79 1014.43 1014.22 1014.12 1013.99 1013.93
Wind_Speed
14 14 12 15 15 15 16 16 21 18 20 19 7 6 8 9 7 6 6 4 4 11 14 17 19 20 21 22 21 22 21 22 21 19 19 18 17 17 17 17 16 16 15 16
15 17 14 18 17 18 19 19 17 17 19 13 10 12 12 7 9 8 7 7 8 7 11 15 19 21 21 21 22 21 21 21 19 19 19 18 17 17 17 17 16 16 17 16
13 12 9 16 21 23 20 20 18 19 15 11 8 14 7 8 8 9 8 9 10 10 11 13 17 19 22 21 20 21 20 20 19 19 19 19 18 17 17 17 16 17 17 17
11 9 16 3 11 12 19 19 22 17 12 6 10 13 2 7 10 11 11 12 12 12 12 14 15 18 19 21 20 20 19 19 19 19 19 18 18 18 17 16 16 15 16 17
11 11 14 6 10 10 14 5 1 12 12 10 12 14 17 9 12 13 14 14 14 14 15 15 16 17 18 20 21 21 21 21 20 20 19 18 19 18 16 16 15 16 16 16
11 12 14 7 5 10 8 4 10 11 10 12 13 11 4 12 14 16 15 14 16 17 16 16 17 19 20 22 20 22 23 22 19 19 19 19 18 17 16 16 16 15 17 17
14 12 11 6 6 3 7 3 12 10 12 13 9 12 10 12 13 15 15 16 17 13 13 16 13 19 19 20 23 21 19 20 18 18 17 17 16 15 15 15 14 14 14 14
10 9 17 7 1 3 4 10 11 13 13 13 12 14 11 11 13 15 17 17 18 12 11 13 8 13 14 16 14 15 16 18 17 17 15 15 16 15 15 14 14 13 14 13
6 5 6 7 9 9 7 11 14 14 14 15 14 13 14 11 13 14 15 13 16 14 11 13 14 6 11 12 14 16 16 16 16 16 16 13 15 14 13 14 13 14 13 12
5 2 7 12 10 7 10 12 12 13 14 15 13 12 13 10 11 12 13 13 13 13 15 15 12 11 8 4 10 14 15 15 15 15 15 14 13 13 13 13 13 13 13 12
6 9 12 6 6 9 13 12 11 11 11 14 11 11 11 10 10 10 10 9 11 13 13 15 13 13 11 9 11 13 14 14 14 12 13 13 12 11 12 12 11 12 12 11
4 9 8 8 10 13 13 13 10 10 9 12 12 10 10 9 9 10 9 7 8 10 11 14 12 13 14 13 9 6 9 9 10 10 10 10 10 9 9 11 12 8 4 3
6 12 11 11 12 11 12 13 11 10 9 11 10 7 7 9 9 10 8 7 7 8 8 9 11 13 14 14 12 8 10 3 6 8 9 9 6 2 4 5 3 5 7 5
11 12 5 9 7 12 11 11 12 1 3 2 3 3 5 5 7 8 8 7 6 7 9 10 9 11 13 14 12 11 6 2 3 4 7 8 8 6 5 3 2 7 12 12
14 12 9 10 10 12 11 11 6 3 6 4 2 2 2 4 5 7 8 10 8 9 8 10 9 11 12 12 12 9 6 4 5 3 1 0 4 8 7 7 9 11 6 5
10 14 14 14 13 14 14 14 9 9 9 8 9 8 6 2 5 8 10 9 8 8 10 11 12 12 12 12 12 7 6 3 4 5 4 3 2 6 12 12 9 10 9 5
11 15 16 15 13 14 16 13 13 13 13 11 11 12 13 12 9 10 10 11 10 10 10 10 11 13 14 11 12 8 9 7 2 7 3 3 6 5 4 8 9 9 7 2
8 10 12 13 14 13 14 15 14 16 15 14 12 12 11 11 9 10 9 8 8 10 12 13 13 12 11 10 11 9 8 8 9 9 7 5 3 5 7 9 9 8 7 4
7 7 8 10 12 10 9 11 13 13 13 13 12 12 10 11 10 8 8 12 12 10 11 13 15 10 9 11 11 7 7 8 7 7 8 8 8 9 8 9 9 8 6 6
8 7 9 9 9 11 11 9 7 12 13 12 11 12 13 13 13 9 10 12 12 8 10 13 12 10 11 11 13 7 7 7 7 8 8 9 9 8 7 7 8 9 9 7
8 7 8 10 11 11 11 10 9 7 6 7 10 11 10 9 7 11 11 10 13 12 13 17 13 10 10 12 12 10 9 8 8 7 10 12 11 7 6 8 8 9 9 8
9 8 8 9 10 11 9 9 10 9 8 9 7 7 9 11 11 10 12 10 8 18 12 12 11 19 15 19 11 12 12 12 10 9 9 10 10 11 10 10 9 8 8 6
8 7 7 7 8 9 9 9 8 9 10 9 9 9 10 9 7 8 8 11 9 16 11 11 21 24 22 12 11 13 13 14 13 12 11 11 10 10 10 11 10 9 9 8
7 7 6 6 6 8 9 8 8 8 7 8 9 10 10 8 10 7 6 8 11 15 14 15 18 23 20 11 12 14 14 13 13 12 12 15 11 11 10 10 10 10 9 10
5 5 6 6 5 6 7 7 6 8 7 8 7 8 9 9 9 9 8 10 14 11 11 17 20 20 14 13 12 13 13 13 13 12 12 12 12 12 11 10 11 10 10 10
5 5 5 5 5 5 6 5 7 6 6 6 6 7 7 7 6 7 8 9 12 11 10 10 11 12 12 13 13 13 12 11 11 12 12 12 12 11 11 11 11 12 11 10
4 3 4 4 4 5 6 5 5 5 6 6 7 6 6 5 6 4 6 8 9 10 9 10 11 11 10 10 11 12 11 10 12 9 10 10 10 10 10 10 9 9 9 9
Wind_Direction
267 278 276 273 265 263 256 264 252 241 226 251 227 18 332 317 315 315 310 321 243 231 213 206 202 202 200 205 201 198 193 197 196 195 199 203 204 204 205 208 212 218 219 220
271 269 258 266 261 250 247 246 256 268 280 288 329 310 283 314 321 322 325 308 298 270 249 222 211 205 201 204 202 199 193 197 193 194 196 200 201 202 204 207 211 212 218 220
262 262 276 262 253 240 243 233 239 237 246 255 286 270 327 327 324 328 317 308 303 290 270 254 222 208 208 204 201 198 195 194 193 192 197 199 198 201 203 205 208 213 216 219
267 289 240 212 37 305 281 223 226 252 259 307 298 308 11 2 340 328 329 318 307 293 276 259 249 218 206 201 199 197 199 195 194 194 197 197 197 202 202 204 206 210 215 220
245 249 270 317 30 8 353 174 303 279 282 310 296 274 258 2 350 341 332 316 302 289 279 265 251 230 202 203 195 195 198 196 196 192 193 195 199 201 203 206 207 212 215 217
278 256 254 55 23 5 346 248 17 331 323 329 305 244 118 356 351 345 337 328 314 304 290 265 235 234 199 197 195 197 197 195 194 193 192 194 196 197 199 204 210 213 217 218
234 250 261 97 22 74 218 85 330 326 323 321 329 328 329 345 346 342 347 338 326 323 311 305 228 217 191 193 202 198 194 193 193 195 196 194 193 196 197 202 209 214 217 217
227 250 249 14 95 214 338 312 314 321 317 314 315 316 327 344 344 348 353 356 352 344 347 326 262 209 182 195 191 191 196 194 191 190 195 192 197 198 202 203 209 213 216 225
256 245 22 1 292 287 279 288 299 309 307 304 306 314 319 338 341 339 350 356 357 354 24 15 1 195 186 189 190 193 193 191 187 190 194 194 192 197 199 202 216 209 213 221
314 329 326 327 296 258 276 293 290 293 291 291 296 309 317 332 336 337 342 347 352 13 28 27 22 35 19 181 201 190 190 186 183 187 191 202 190 196 206 204 206 218 211 215
262 290 326 285 265 314 302 294 280 291 310 308 295 298 314 325 330 330 329 343 358 10 14 24 22 29 26 348 188 189 188 182 180 184 188 193 209 202 207 219 214 210 217 214
300 311 299 290 314 313 310 298 284 280 291 293 299 297 309 320 327 329 320 340 1 6 9 9 19 23 23 10 13 137 162 173 176 175 170 196 193 204 64 27 9 12 43 276
319 325 314 317 314 325 313 303 292 273 258 272 279 289 308 322 326 318 331 354 7 2 7 1 15 19 8 13 14 32 68 70 118 149 164 178 178 223 262 159 166 265 264 247
4 345 314 333 331 332 324 311 292 128 129 250 292 330 311 324 330 345 349 348 357 35 16 359 3 14 356 5 4 17 64 229 154 142 156 150 134 104 137 279 217 238 227 235
7 22 355 342 354 356 347 346 334 95 73 62 59 42 333 341 1 19 15 9 25 34 16 2 2 12 354 355 352 359 341 12 1 352 345 161 227 95 27 270 249 250 199 206
6 17 26 13 6 14 3 13 12 34 58 47 38 36 44 15 67 46 25 23 26 25 23 3 1 358 355 352 346 334 321 172 296 286 290 175 88 146 178 225 233 243 254 231
5 11 16 27 11 15 16 7 8 15 33 38 41 45 40 52 46 43 36 15 24 20 8 1 357 353 359 345 331 343 313 330 254 241 214 198 211 197 194 233 222 220 223 221
1 13 19 16 33 19 16 13 15 17 23 28 34 46 50 43 36 39 29 29 31 27 13 1 353 346 339 340 347 325 319 315 324 327 330 302 260 238 243 252 249 234 233 181
359 355 12 20 22 37 36 22 23 19 15 17 31 41 45 49 37 33 32 41 34 23 11 360 352 345 356 1 350 320 318 313 308 299 291 294 271 245 243 254 263 268 270 271
1 358 345 6 18 18 23 36 45 34 22 22 22 27 36 33 27 1 35 37 26 19 16 11 1 3 7 12 360 9 352 338 322 306 287 294 287 279 266 257 278 286 291 280
13 7 6 1 3 15 26 22 37 63 45 31 39 31 24 23 28 31 35 35 19 17 30 31 25 18 23 23 26 22 14 13 6 355 344 334 318 290 308 342 358 10 8 8
16 20 16 13 15 23 30 36 42 42 52 45 39 62 39 31 20 35 38 26 16 21 32 35 31 42 44 43 37 40 36 34 28 24 25 24 16 10 15 16 17 23 11 23
22 10 26 31 22 19 31 27 48 40 41 47 43 52 57 65 47 27 24 13 32 31 36 39 44 46 48 46 47 48 44 39 37 35 31 35 36 34 32 29 28 31 25 29
23 29 11 5 16 28 19 18 27 44 48 68 51 46 38 56 58 56 60 46 37 63 48 40 40 46 49 47 46 50 48 45 44 42 43 40 40 42 41 42 40 37 36 34
12 4 39 358 4 20 16 9 32 27 40 76 89 92 71 66 63 61 58 57 40 49 58 61 52 48 50 45 43 50 53 49 40 44 42 43 40 42 42 41 46 48 45 41
356 11 46 31 9 1 22 19 48 24 24 36 51 51 73 77 83 62 59 59 63 62 61 49 41 45 55 53 53 50 48 51 50 48 46 42 39 38 42 42 40 41 41 41
202 283 16 80 54 40 34 31 77 42 30 18 60 56 55 52 75 68 67 48 41 49 55 51 43 62 57 54 55 61 59 54 42 44 52 53 46 38 32 35 38 38 43 44